Regional Weather Roundup
Issued by NWS Grand Forks, ND

Home | Current Version | Previous Version | Graphics & Text | Print | Product List | Glossary On
Versions: 1 2 3 4 5 6 7 8 9 10 11 12 13 14 15 16 17 18 19 20 21 22 23 24 25 26 27 28 29 30 31 32 33 34 35 36 37 38 39 40 41 42 43 44 45 46 47 48 49 50
000
ASUS43 KFGF 270010
RWRFGF
PRAIRIE TO PINES  WEATHER ROUNDUP
NATIONAL WEATHER SERVICE EASTERN NORTH DAKOTA/GRAND FORKS ND
700 PM CDT FRI AUG 26 2016

 **SATELLITE DATA USED TO AUGMENT SKY COVER AT AUTOMATED STATIONS**
 *****  WEATHER ACROSS EASTERN NORTH DAKOTA  *****

CITY           SKY/WX    TMP DP  RH WIND       PRES   REMARKS
GRAND FORKS    CLOUDY    70  52  52 SW12      30.01S
6HR MIN TEMP:  70; 6HR MAX TEMP:  78;

GRAND FRKS AFB CLOUDY    69  52  53 SW13      30.02S
GRAND FRKS NWS   N/A     68 N/A N/A SW10        N/A
DEVILS LAKE    MOSUNNY   70  51  51 S21       30.00F
6HR MIN TEMP:  69; 6HR MAX TEMP:  74;

FARGO          CLOUDY    67  51  56 SW9       30.05F
WAHPETON ARPT  CLOUDY    66  54  63 S5        30.08S
$$

 ***** WEATHER ACROSS CENTRAL AND WESTERN NORTH DAKOTA  *****

CITY           SKY/WX    TMP DP  RH WIND       PRES   REMARKS
BISMARCK       CLOUDY    67  52  58 SE15      30.00F
6HR MIN TEMP:  67; 6HR MAX TEMP:  73;

MINOT          CLOUDY    69  49  48 S21G28    29.93F
6HR MIN TEMP:  69; 6HR MAX TEMP:  77;

JAMESTOWN      CLOUDY    64  53  67 S6        30.04F
6HR MIN TEMP:  64; 6HR MAX TEMP:  68;

MINOT AFB      SUNNY     69  50  50 S21G30    29.91F
GARRISON         N/A     66  54  65 S12       29.96F
WILLISTON      CLOUDY    71  47  42 NW21G28   29.92S
6HR MIN TEMP:  69; 6HR MAX TEMP:  80;

DICKINSON      MOSUNNY   66  42  41 S8        29.96F
6HR MIN TEMP:  61; 6HR MAX TEMP:  71; 6HR PCP: TRACE;

HETTINGER      CLOUDY    67  50  54 S8        30.02S
6HR MIN TEMP:  54; 6HR MAX TEMP:  74; 6HR PCP:  0.05;

$$

 *****  OTHER AIRPORT OBSERVATIONS IN OUR AREA  *****

CITY           SKY/WX    TMP DP  RH WIND       PRES   REMARKS
WALHALLA       NOT AVBL
GRAFTON AIRPOR FAIR      72  54  53 SW13      30.00S
VALLEY CITY AR MOCLDY    64  52  63 S8        30.07F
CANDO          NOT AVBL
CAVALIER APRT  FAIR      73  50  43 SW9       29.97S
GWINNER        FAIR      63  57  82 CALM      30.07F
SHEYENNE NWR     N/A     63  56  78 S2        29.95S
ROLLA          FAIR      66  46  48 SW17G24   29.97S
 ***** THE ABOVE OBSERVATIONS ARE NON NWS ARE NOT QUALITY
       CONTROLLED AND MAY MIS-REPORT RAIN FOR SNOW...
$$

  *****  WEATHER ACROSS NORTHERN MINNESOTA  *****

CITY           SKY/WX    TMP DP  RH WIND       PRES   REMARKS
FLAG ISLAND    CLOUDY    72  54  53 CALM      29.99F
WARROAD        MOSUNNY   70  55  60 CALM      30.01F
ROSEAU         CLOUDY    70  57  64 S6        30.00F
HALLOCK        CLOUDY    73  50  43 SW10      29.98S
THF RVR FALLS  CLOUDY    69  54  58 S10       30.04S
6HR MIN TEMP:  69; 6HR MAX TEMP:  76;

BAUDETTE       MOSUNNY   69  51  52 S9        30.03S
6HR MIN TEMP:  69; 6HR MAX TEMP:  76;

WASKISH        PTSUNNY   68  55  64 CALM      30.06S
CROOKSTON      CLOUDY    70  52  52 SW12      30.04S
GREENBUSH NDAW   N/A     72  54  53 SW9         N/A
$$
  *****  WEATHER ACROSS CENTRAL AND WEST MINNESOTA  *****

CITY           SKY/WX    TMP DP  RH WIND       PRES   REMARKS
FOSSTON        CLOUDY    66  52  59 S7        30.06F
BEMIDJI        CLOUDY    69  52  55 S5        30.07S
PARK RAPIDS    CLOUDY    69  52  54 SW7       30.09F
6HR MIN TEMP:  69; 6HR MAX TEMP:  76;

ELBOW LAKE     MOCLDY    67  55  66 S6        30.10F
WADENA         MOSUNNY   66  52  59 S6        30.10S
DETROIT LAKES  CLOUDY    68  52  56 SW7       30.09F
MOORHEAD       CLOUDY    66  54  63 SW6       30.07S
FERGUS FALLS   CLOUDY    66  55  68 SW7       30.09F
MORRIS MN      MOSUNNY   70  55  60 CALM      30.09F
STAPLES        MOSUNNY   70  50  49 SW5       30.10F
$$
  *****  WEATHER ELSEWHERE ACROSS MINNESOTA  *****

CITY           SKY/WX    TMP DP  RH WIND       PRES   REMARKS
DULUTH         CLOUDY    69  54  58 S8        30.11F
6HR MIN TEMP:  68; 6HR MAX TEMP:  73;

INTRNTL FALLS  MOCLDY    69  46  43 SW6       30.04F
6HR MIN TEMP:  68; 6HR MAX TEMP:  74;

ELY            CLOUDY    68  48  49 SW3       30.10S
CLOQUET        CLOUDY    68  54  60 S5        30.12S
WHEATON        NOT AVBL
BRAINERD       SUNNY     68  53  58 S8        30.11S
6HR MIN TEMP:  68; 6HR MAX TEMP:  75;

HIBBING        CLOUDY    68  48  48 W3        30.09F
6HR MIN TEMP:  68; 6HR MAX TEMP:  72;

ALEXANDRIA     PTSUNNY   68  52  56 S8        30.13F
6HR MIN TEMP:  68; 6HR MAX TEMP:  72;

SAINT CLOUD    MOSUNNY   69  55  60 S6        30.12S
6HR MIN TEMP:  69; 6HR MAX TEMP:  73;

MINNEAPOLIS    CLOUDY    70  55  59 SE6       30.12F
6HR MIN TEMP:  69; 6HR MAX TEMP:  72;

$$

  *****  WEATHER ACROSS SOUTH DAKOTA  *****

CITY           SKY/WX    TMP DP  RH WIND       PRES   REMARKS
SIOUX FALLS    CLOUDY    71  58  63 SE8       30.09F
6HR MIN TEMP:  71; 6HR MAX TEMP:  75;

BROOKINGS      CLOUDY    68  55  63 SE7       30.09F
WATERTOWN      PTSUNNY   69  52  54 S7        30.08F
6HR MIN TEMP:  68; 6HR MAX TEMP:  71;

HURON          CLOUDY    67  55  65 E9        30.05F
6HR MIN TEMP:  66; 6HR MAX TEMP:  72; 6HR PCP: TRACE;

SISSETON         N/A     66  62  87 S3        30.06F
ABERDEEN       CLOUDY    63  57  81 E5        30.06F
6HR MIN TEMP:  62; 6HR MAX TEMP:  69; 6HR PCP:  0.01;

MITCHELL       PTSUNNY   69  57  65 E7        30.05F
PIERRE         PTSUNNY   66  55  67 SE10      30.02F
6HR MIN TEMP:  58; 6HR MAX TEMP:  66; 6HR PCP:  0.10;

MOBRIDGE       CLOUDY    61  55  81 SE9       30.02F
RAPID CITY     MOSUNNY   66  53  63 S6        30.00R THUNDER
6HR MIN TEMP:  59; 6HR MAX TEMP:  69;

$$

  *****  SOME WEATHER IN NEARBY STATES *****

CITY           SKY/WX    TMP DP  RH WIND       PRES   REMARKS
GLASGOW MT     CLOUDY    69  44  40 W14G20    29.94F
6HR MIN TEMP:  61; 6HR MAX TEMP:  74; 6HR PCP:  0.01;

GREAT FALLS MT SUNNY     70  39  32 S5        29.96F
6HR MIN TEMP:  61; 6HR MAX TEMP:  72;

CHEYENNE WY    CLOUDY    64  44  48 E13       30.11S
6HR MIN TEMP:  57; 6HR MAX TEMP:  75; 6HR PCP:  0.18;

SCOTTSBLUFF NE CLOUDY    67  52  58 SE16      30.05R
6HR MIN TEMP:  66; 6HR MAX TEMP:  73;

OMAHA NE       CLOUDY    69  63  81 E8        30.03F
6HR MIN TEMP:  68; 6HR MAX TEMP:  71; 6HR PCP:  0.02;

DES MOINES IA  CLOUDY    70  65  84 NE10      30.06S
6HR MIN TEMP:  70; 6HR MAX TEMP:  74; 6HR PCP:  0.01;

DAVENPORT IA   CLOUDY    73  64  73 E6        30.10S
6HR MIN TEMP:  73; 6HR MAX TEMP:  78;

CHICAGO IL     PTCLDY    74  61  63 NE9       30.11S
6HR MIN TEMP:  74; 6HR MAX TEMP:  81;

EAU CLAIRE WI  CLOUDY    69  56  62 NW3       30.13F
6HR MIN TEMP:  69; 6HR MAX TEMP:  74;

LA CROSSE WI   CLOUDY    73  58  59 CALM      30.13S
6HR MIN TEMP:  71; 6HR MAX TEMP:  76;

$$

  *****  SOME NATIONAL WEATHER *****

CITY           SKY/WX    TMP DP  RH WIND       PRES   REMARKS
LA GUARDIA NY  MOCLDY    86  67  52 NW13      30.00R
6HR MIN TEMP:  86; 6HR MAX TEMP:  91;

RALEIGH NC     PTCLDY    89  73  59 S3        30.04R HX  97
6HR MIN TEMP:  89; 6HR MAX TEMP:  99;

ATLANTA GA     PTCLDY    90  66  45 SE6       30.05R HX  92
6HR MIN TEMP:  90; 6HR MAX TEMP:  94;

NEW ORLEANS LA MOCLDY    86  71  60 SE6       29.96S HX  91
6HR MIN TEMP:  86; 6HR MAX TEMP:  93;

OKLAHOMA CITY  LGT RAIN  79  68  69 SE17G24   29.99R
6HR MIN TEMP:  79; 6HR MAX TEMP:  93; 6HR PCP:  0.02;

ALBUQUERQUE NM CLOUDY    78  44  29 CALM      30.13S
6HR MIN TEMP:  71; 6HR MAX TEMP:  81; 6HR PCP: TRACE;

SALT LAKE CITY MOSUNNY   83  27  13 N12G22    29.97S
6HR MIN TEMP:  81; 6HR MAX TEMP:  88;

LOS ANGELES CA MOSUNNY   69  57  65 W14       29.93F
6HR MIN TEMP:  69; 6HR MAX TEMP:  76;

BOISE ID       SUNNY    C1F1C2F2C3F3C4F4C5F5C6F6C7F7C8F8C9F9CaFaCbFbCcFcCd!


USA.gov is the U.S. government's official web portal to all federal, state and local government web resources and services.